TimeCDT,TemperatureF,Dew PointF,Humidity,Sea Level PressureIn,VisibilityMPH,Wind Direction,Wind SpeedMPH,Gust SpeedMPH,PrecipitationIn,Events,Conditions,WindDirDegrees,DateUTC
12:15 AM,51.8,46.4,82,30.13,10.0,SE,4.6,-,N/A,,Clear,140,2013-05-06 05:15:00
12:35 AM,51.8,46.4,82,30.13,10.0,Calm,Calm,-,N/A,,Clear,0,2013-05-06 05:35:00
12:55 AM,50.0,46.4,87,30.13,10.0,Calm,Calm,-,N/A,,Clear,0,2013-05-06 05:55:00
1:15 AM,50.0,46.4,87,30.14,10.0,Calm,Calm,-,N/A,,Clear,0,2013-05-06 06:15:00
1:35 AM,46.4,44.6,93,30.14,10.0,SSW,3.5,-,N/A,,Clear,210,2013-05-06 06:35:00
1:55 AM,46.4,44.6,93,30.14,5.0,SW,3.5,-,N/A,,Clear,220,2013-05-06 06:55:00
2:15 AM,46.4,46.4,100,30.13,7.0,Calm,Calm,-,N/A,,Clear,0,2013-05-06 07:15:00
2:35 AM,46.4,46.4,100,30.13,1.2,Calm,Calm,-,N/A,,Mist,0,2013-05-06 07:35:00
2:55 AM,44.6,44.6,100,30.12,0.5,Calm,Calm,-,N/A,Fog,Fog,0,2013-05-06 07:55:00
3:15 AM,46.4,44.6,93,30.12,2.5,West,3.5,-,N/A,,Clear,260,2013-05-06 08:15:00
3:35 AM,42.8,42.8,100,30.12,7.0,West,5.8,-,N/A,,Clear,260,2013-05-06 08:35:00
3:55 AM,42.8,42.8,100,30.12,7.0,West,6.9,-,N/A,,Clear,260,2013-05-06 08:55:00
4:15 AM,42.8,42.8,100,30.12,7.0,West,5.8,-,N/A,,Clear,280,2013-05-06 09:15:00
4:35 AM,42.8,42.8,100,30.12,5.0,West,5.8,-,N/A,,Clear,270,2013-05-06 09:35:00
4:55 AM,42.8,42.8,100,30.12,5.0,West,4.6,-,N/A,,Clear,270,2013-05-06 09:55:00
5:15 AM,42.8,42.8,100,30.12,7.0,West,4.6,-,N/A,,Clear,280,2013-05-06 10:15:00
5:35 AM,42.8,42.8,100,30.12,5.0,Calm,Calm,-,N/A,,Clear,0,2013-05-06 10:35:00
5:55 AM,42.8,41.0,93,30.12,5.0,NW,3.5,-,N/A,,Clear,320,2013-05-06 10:55:00
6:15 AM,41.0,41.0,100,30.12,1.5,North,3.5,-,N/A,,Mist,360,2013-05-06 11:15:00
6:35 AM,41.0,41.0,100,30.13,1.0,ENE,3.5,-,N/A,,Mostly Cloudy,60,2013-05-06 11:35:00
6:55 AM,41.0,41.0,100,30.14,0.2,Calm,Calm,-,N/A,Fog,Fog,0,2013-05-06 11:55:00
7:15 AM,41.0,41.0,100,30.14,0.2,Calm,Calm,-,N/A,Fog,Fog,0,2013-05-06 12:15:00
7:35 AM,42.8,42.8,100,30.16,0.5,Calm,Calm,-,N/A,Fog,Fog,0,2013-05-06 12:35:00
7:55 AM,44.6,44.6,100,30.15,0.2,Calm,Calm,-,N/A,Fog,Fog,0,2013-05-06 12:55:00
8:15 AM,46.4,46.4,100,30.16,0.2,Calm,Calm,-,N/A,Fog,Fog,0,2013-05-06 13:15:00
8:35 AM,48.2,48.2,100,30.16,0.2,NE,3.5,-,N/A,Fog,Fog,50,2013-05-06 13:35:00
8:55 AM,50.0,50.0,100,30.16,10.0,ENE,4.6,-,N/A,,Scattered Clouds,60,2013-05-06 13:55:00
9:15 AM,51.8,50.0,94,30.16,10.0,NE,4.6,-,N/A,,Clear,50,2013-05-06 14:15:00
9:35 AM,53.6,50.0,88,30.16,10.0,Calm,Calm,-,N/A,,Clear,0,2013-05-06 14:35:00
9:55 AM,55.4,50.0,82,30.17,10.0,NE,3.5,-,N/A,,Clear,50,2013-05-06 14:55:00
10:15 AM,55.4,48.2,77,30.17,10.0,Calm,Calm,-,N/A,,Clear,0,2013-05-06 15:15:00
10:35 AM,55.4,50.0,82,30.16,10.0,Calm,Calm,-,N/A,,Clear,0,2013-05-06 15:35:00
10:55 AM,59.0,50.0,72,30.17,10.0,Calm,Calm,-,N/A,,Clear,0,2013-05-06 15:55:00
11:15 AM,60.8,48.2,63,30.16,10.0,ENE,3.5,-,N/A,,Scattered Clouds,70,2013-05-06 16:15:00
11:35 AM,60.8,44.6,55,30.16,10.0,NNE,4.6,-,N/A,,Scattered Clouds,30,2013-05-06 16:35:00
11:55 AM,60.8,44.6,55,30.16,10.0,East,4.6,-,N/A,,Clear,80,2013-05-06 16:55:00
12:15 PM,62.6,44.6,52,30.15,10.0,ENE,3.5,-,N/A,,Clear,60,2013-05-06 17:15:00
12:35 PM,64.4,44.6,49,30.15,10.0,NNE,4.6,-,N/A,,Clear,30,2013-05-06 17:35:00
12:55 PM,62.6,44.6,52,30.14,10.0,SSE,4.6,-,N/A,,Scattered Clouds,160,2013-05-06 17:55:00
1:15 PM,64.4,42.8,45,30.13,10.0,Calm,Calm,-,N/A,,Scattered Clouds,0,2013-05-06 18:15:00
1:35 PM,64.4,42.8,45,30.12,10.0,ESE,3.5,-,N/A,,Clear,120,2013-05-06 18:35:00
1:55 PM,66.2,41.0,40,30.12,10.0,NE,3.5,-,N/A,,Clear,40,2013-05-06 18:55:00
2:15 PM,64.4,42.8,45,30.12,10.0,South,4.6,-,N/A,,Clear,170,2013-05-06 19:15:00
2:55 PM,66.2,42.8,43,30.10,10.0,East,4.6,-,N/A,,Clear,100,2013-05-06 19:55:00
3:15 PM,68.0,41.0,37,30.09,10.0,SSE,3.5,-,N/A,,Clear,150,2013-05-06 20:15:00
3:35 PM,68.0,41.0,37,30.09,10.0,Calm,Calm,-,N/A,,Clear,0,2013-05-06 20:35:00
3:55 PM,68.0,42.8,40,30.08,10.0,SSE,3.5,-,N/A,,Clear,150,2013-05-06 20:55:00
4:15 PM,68.0,42.8,40,30.07,10.0,NW,3.5,-,N/A,,Clear,320,2013-05-06 21:15:00
4:35 PM,69.8,42.8,38,30.07,10.0,SW,5.8,-,N/A,,Clear,220,2013-05-06 21:35:00
4:55 PM,68.0,42.8,40,30.05,10.0,NNW,3.5,-,N/A,,Clear,330,2013-05-06 21:55:00
5:15 PM,68.0,42.8,40,30.05,10.0,South,3.5,-,N/A,,Clear,180,2013-05-06 22:15:00
5:35 PM,68.0,41.0,37,30.05,10.0,Calm,Calm,-,N/A,,Clear,0,2013-05-06 22:35:00
5:55 PM,68.0,42.8,40,30.05,10.0,SE,3.5,-,N/A,,Clear,140,2013-05-06 22:55:00
6:15 PM,68.0,42.8,40,30.05,10.0,Calm,Calm,-,N/A,,Clear,0,2013-05-06 23:15:00
6:35 PM,68.0,42.8,40,30.05,10.0,East,4.6,-,N/A,,Clear,100,2013-05-06 23:35:00
6:55 PM,68.0,41.0,37,30.04,10.0,East,4.6,-,N/A,,Clear,100,2013-05-06 23:55:00
7:15 PM,66.2,42.8,43,30.04,10.0,ESE,4.6,-,N/A,,Clear,120,2013-05-07 00:15:00
7:35 PM,68.0,44.6,43,30.04,10.0,SE,4.6,-,N/A,,Clear,130,2013-05-07 00:35:00
7:55 PM,64.4,44.6,49,30.04,10.0,SE,4.6,-,N/A,,Clear,130,2013-05-07 00:55:00
8:15 PM,62.6,46.4,55,30.04,10.0,SE,8.1,-,N/A,,Clear,140,2013-05-07 01:15:00
8:35 PM,60.8,46.4,59,30.05,10.0,SE,6.9,-,N/A,,Clear,130,2013-05-07 01:35:00
8:55 PM,59.0,46.4,63,30.05,10.0,SE,6.9,-,N/A,,Clear,130,2013-05-07 01:55:00
9:15 PM,59.0,46.4,63,30.05,10.0,ESE,6.9,-,N/A,,Clear,120,2013-05-07 02:15:00
9:55 PM,55.4,46.4,72,30.07,10.0,SE,5.8,-,N/A,,Clear,140,2013-05-07 02:55:00
10:15 PM,55.4,46.4,72,30.07,10.0,SE,6.9,-,N/A,,Clear,140,2013-05-07 03:15:00
10:35 PM,55.4,46.4,72,30.07,10.0,SE,6.9,-,N/A,,Clear,140,2013-05-07 03:35:00
10:55 PM,53.6,46.4,77,30.07,10.0,ESE,6.9,-,N/A,,Clear,120,2013-05-07 03:55:00
11:15 PM,55.4,48.2,77,30.07,10.0,SE,8.1,-,N/A,,Clear,130,2013-05-07 04:15:00
11:35 PM,53.6,50.0,88,30.07,10.0,SE,6.9,-,N/A,,Clear,140,2013-05-07 04:35:00
11:55 PM,53.6,48.2,82,30.07,10.0,SSE,6.9,-,N/A,,Clear,150,2013-05-07 04:55:00